This is the latest recevied weather packets stored in our database for station/object PY2UEP-1. If no packets are shown the sender has not sent any weather packets the latest 10 day(s).
| Time | Temp. | Humidity | Pressure | Rain* | Wind** | Luminosity | Snow |
|---|---|---|---|---|---|---|---|
| 1787436062 | 18.89° C | 50% | 1020.3 hPa | 0 mm | - | - | - |
| 1787435762 | 18.89° C | 50% | 1020.2 hPa | 0 mm | - | - | - |
| 1787435462 | 18.89° C | 51% | 1020.1 hPa | 0 mm | - | - | - |
| 1787435162 | 19.44° C | 50% | 1020.1 hPa | 0 mm | - | - | - |
| 1787434862 | 19.44° C | 49% | 1020.1 hPa | 0 mm | - | - | - |
| 1787434562 | 20° C | 47% | 1019.9 hPa | 0 mm | - | - | - |
| 1787434262 | 20° C | 47% | 1020.2 hPa | 0 mm | - | - | - |
| 1787433962 | 20° C | 47% | 1020.2 hPa | 0 mm | - | - | - |
| 1787433662 | 20° C | 48% | 1020.1 hPa | 0 mm | - | - | - |
| 1787433362 | 20° C | 49% | 1019.9 hPa | 0 mm | - | - | - |
| 1787433062 | 20.56° C | 48% | 1019.9 hPa | 0 mm | - | - | - |
| 1787432762 | 20.56° C | 48% | 1019.9 hPa | 0 mm | - | - | - |
| 1787432462 | 21.11° C | 47% | 1019.9 hPa | 0 mm | - | - | - |
| 1787432162 | 21.67° C | 45% | 1019.9 hPa | 0 mm | - | - | - |
| 1787431862 | 22.22° C | 44% | 1019.9 hPa | 0 mm | - | - | - |
| 1787431562 | 22.22° C | 42% | 1019.9 hPa | 0 mm | - | - | - |
| 1787431262 | 23.33° C | 40% | 1019.9 hPa | 0 mm | - | - | - |
| 1787430962 | 23.89° C | 38% | 1019.9 hPa | 0 mm | - | - | - |
| 1787430662 | 23.89° C | 36% | 1020.1 hPa | 0 mm | - | - | - |
| 1787430362 | 23.89° C | 36% | 1020.1 hPa | 0 mm | - | - | - |
| 1787430062 | 23.89° C | 37% | 1020.1 hPa | 0 mm | - | - | - |
| 1787429762 | 23.89° C | 36% | 1019.8 hPa | 0 mm | - | - | - |
| 1787429462 | 24.44° C | 35% | 1019.9 hPa | 0 mm | - | - | - |
| 1787429161 | 24.44° C | 34% | 1019.9 hPa | 0 mm | - | - | - |
| 1787428862 | 24.44° C | 33% | 1019.8 hPa | 0 mm | - | - | - |
* Rain since midnight (hover to see other rain measurements)
** Current wind speed in m/s (hover to see current wind gust speed)